Location: Antioch Church
(34.9543°N, 88.5145°W)
Time: 04:34:11
(UTC+00:00)

Cosmos 2237 Rocket - Pass Details

Date: 11 December 2019
Orbit: 836 x 849 km, 71.0° (Epoch: 23 January)

Event Time Altitude Azimuth Distance (km) Brightness Sun altitude
Rises 00:16:27 0° 240° (WSW) 3,401 6.8 -18.7°
Reaches altitude 10° 00:19:34 10° 256° (WSW) 2,469 5.9 -19.3°
Maximum altitude 00:23:39 20° 303° (WNW) 1,865 4.5 -20.1°
Drops below altitude 10° 00:27:44 10° 349° (N) 2,476 4.6 -20.9°
Enters shadow 00:30:44 - 6° (N) 3,362 5.1 -21.5°
